Regional Weather Roundup
Issued by NWS Cleveland, OH

Home | Current Version | Previous Version | Graphics & Text | Print | Product List | Glossary On
Versions: 1 2 3 4 5 6 7 8 9 10 11 12 13 14 15 16 17 18 19 20 21 22 23 24 25 26 27 28 29 30 31 32 33 34 35 36 37 38 39 40 41 42 43 44 45 46 47 48 49 50
000
ASUS41 KCLE 022010
RWRCLE
OHIO REGIONAL WEATHER ROUNDUP
NATIONAL WEATHER SERVICE WILMINGTON, OH
400 PM EDT TUE SEP 02 2014

NOTE: "FAIR" INDICATES FEW OR NO CLOUDS BELOW 12,000 FEET WITH NO
SIGNIFICANT WEATHER AND/OR OBSTRUCTIONS TO VISIBILITY.

OHZ001>008-015>018-024>027-034-035-043-044-022100-
   NORTHWEST OHIO

CITY           SKY/WX    TMP DP  RH WIND       PRES   REMARKS
DEFIANCE       CLOUDY    76  67  73 VRB5      29.91R
FINDLAY        CLOUDY    75  67  76 SW13      29.91F
TOLEDO EXPRESS PTSUNNY   78  68  71 W10       29.88S
TOLEDO METCALF CLOUDY    75  67  76 SW12      29.90R
LIMA           CLOUDY    74  67  78 W12       29.94F
$$

OHZ009>014-019>023-028>033-038-089-022100-
   NORTHEAST OHIO

CITY           SKY/WX    TMP DP  RH WIND       PRES   REMARKS
CLE-HOPKINS    RAIN      72  65  78 W17G29    29.90S
CLE-LAKEFRONT  HVY RAIN  70  67  90 W14G32    29.88R FOG
CUY CO. ARPT   CLOUDY    79  68  69 W14G23    29.90S
LORAIN-ELYRIA  CLOUDY    75  67  76 W9        29.91R
ASHTABULA      CLOUDY    73  66  78 W9        29.88S
AKRON-CANTON   CLOUDY    77  65  66 W13G24    29.91S
WOOSTER        PTSUNNY   76  66  71 W12G20    29.92S
MANSFIELD      LGT RAIN  72  66  83 SW7       29.94S FOG
YOUNGSTOWN     CLOUDY    74  68  81 W12       29.89S
$$

OHZ042-051>053-060>062-070>072-077>081-022100-
  SOUTHWEST OHIO

CITY           SKY/WX    TMP DP  RH WIND       PRES   REMARKS
CINC-COVINGTON HVY RAIN  73  70  88 W3        29.95F
CINC-LUNKEN    PTSUNNY   80  68  66 W9        29.94F
HAMILTON       CLOUDY    78  69  73 VRB7      29.95F
DAYTON         LGT RAIN  76  69  79 SW7       29.96F
WRIGHT-PAT AFB LGT RAIN  73  70  88 SW8       29.94F FOG
DAYTON GENERAL CLOUDY    76  68  76 VRB6      29.95F
WILMINGTON     CLOUDY    77  66  68 W12G20    29.95F
$$

OHZ036-037-039>041-045>050-054>059-063>069-073>076-082>088-022100-
  CENTRAL AND SOUTHEAST OHIO

CITY           SKY/WX    TMP DP  RH WIND       PRES   REMARKS
COLUMBUS       PTSUNNY   79  63  57 W10       29.93S
OSU AIRPORT    CLOUDY    76  66  71 W8        29.94F
BOLTON FIELD   PTSUNNY   75  68  78 W7        29.95F
RICKENBACK AFB LGT RAIN  80  63  54 W12       29.93F
NEWARK         MOSUNNY   78  66  66 W12       29.93F
MARION         PTSUNNY   76  66  71 W13       29.93F
LANCASTER      PTSUNNY   78  67  68 VRB7      29.94F
ZANESVILLE     PTSUNNY   80  65  59 W13G21    29.93S
NEW PHILLY     PTSUNNY   78  70  76 W9G18     29.91S
$$



USA.gov is the U.S. government's official web portal to all federal, state and local government web resources and services.